カタログに戻る

STARLINK-3646

運用中通信VLEO
NORAD 51785·PAYLOAD·🇺🇸 United States

打ち上げ Feb 25, 2022 から Vandenberg Space Force Base

Loading…

次のパス (今後24時間)

TLE

最新Source: CelesTrak SupGP

元期: Sep 15, 2026, 01:57 UTC

1 51785C 22017T   26258.08173611 -.00020232  00000+0 -65071-3 0  2588
2 51785  53.1570 194.6377 0001352  86.4122  40.2662 15.31707128    16

AllMySatでSTARLINK-3646をリアルタイム追跡

Download on the App Store